KUIPER-00076 (64823 NORAD) Tracking and Keplerian Element Data

This shows tracking and keplerian element data for the satellite.

Feedback or suggestion? Click here.




ElementValue
Catalog64823
NameKUIPER-00076
Epoch Orbit2361
Epoch Day354.01541083
Epoch Year2025
RAAN285.4025
Inclination51.903
Eccentricity0.0005338
Argument of Perigee8.4801
Mean Anonmoly351.625
Mean Motion14.79935523
Decay Rate7.169E-05
L11 64823U 25151H 25354.01541083 .00007169 00000+0 96830-3 0 9999
L22 64823 51.9030 285.4025 0005338 8.4801 351.6250 14.79935523 23611



Live tracking and technical data element details for KUIPER-00076 (NORAD 64823). KUIPER-00076 can be tracked NOW for your location showing map with azimuth and elevation plus other details from your city location.







IsCatalogInMostPopularTable: catalog: 64823, numindb: 11
Update: records affected: 1



GetName: 64823 KUIPER-00076

Hit Count: updated at: Tue, 21 Apr 2026 21:35:48 GMT